Location: Newark
(51.8900°N, 2.0780°W)
Time: 16:17:06
(UTC+00:00)

Envisat - Pass Details

Date: 27 November 2019
Orbit: 764 x 766 km, 98.1° (Epoch: 06 December)

Event Time Altitude Azimuth Distance (km) Brightness Sun altitude
Rises 19:00:13 0° 198° (SSW) 3,221 6.5 -26.3°
Reaches altitude 10° 19:02:51 10° 211° (SSW) 2,300 5.8 -26.7°
Maximum altitude 19:07:07 27° 268° (W) 1,456 5.1 -27.4°
Drops below altitude 10° 19:11:24 10° 325° (NW) 2,314 5.9 -28.1°
Sets 19:14:04 0° 338° (NNW) 3,245 6.5 -28.5°
